Theta_e
306 305 304 304 304 304 303 302 300 299 298 297 297 296 296 296 295 295 294 294 294 294 294 294 294 294 294 294 294 294 293 291 289 289 289 288 288 287 287 287 286 286
307 305 304 303 303 304 304 303 302 300 298 297 296 296 295 295 295 294 293 293 293 294 294 294 294 294 294 294 294 294 292 290 289 289 288 288 288 287 287 287 286 286
307 306 305 304 304 305 305 304 302 300 298 296 296 295 295 294 294 293 293 293 293 293 293 294 294 294 294 294 293 293 291 289 289 288 288 288 287 287 287 286 286 286
307 307 307 306 304 304 303 303 302 301 298 296 295 294 294 294 293 293 293 293 293 293 293 293 293 293 293 293 293 291 290 289 288 288 288 287 287 287 287 286 286 286
307 307 307 306 304 302 302 301 301 300 299 297 295 294 293 293 293 293 292 292 293 293 293 293 293 293 293 293 292 290 289 288 288 288 287 287 287 286 286 286 286 286
306 306 306 305 304 302 301 301 300 299 299 297 295 294 293 293 293 292 292 292 292 292 293 293 293 293 293 292 291 290 289 288 287 287 287 287 286 286 286 286 286 286
306 306 306 305 304 302 301 300 299 298 298 297 295 294 293 293 292 292 292 292 292 292 292 293 293 293 292 292 290 289 288 288 287 287 286 286 286 286 286 286 286 285
305 305 305 304 303 302 301 300 299 298 297 296 295 294 293 292 292 292 292 292 292 292 292 292 292 292 292 291 290 289 288 287 287 287 286 286 286 286 286 285 285 286
304 303 304 303 302 301 300 299 298 297 296 296 295 294 293 292 292 291 291 291 292 292 292 292 292 292 292 291 290 289 288 287 287 286 286 286 286 286 286 285 286 286
303 303 303 302 302 301 299 298 296 295 294 294 294 293 292 291 291 291 291 291 291 292 292 292 292 292 291 290 289 288 287 287 287 286 286 286 286 286 285 286 286 285
303 302 302 302 301 300 298 297 295 294 293 293 293 292 292 291 291 291 291 291 291 291 292 292 292 291 291 290 289 288 287 287 286 286 286 286 286 285 285 286 285 285
302 302 301 301 301 299 298 296 295 294 293 292 292 292 291 291 291 291 291 291 291 291 291 291 291 291 290 289 288 287 287 286 286 286 286 285 285 285 285 285 285 285
303 302 301 300 299 298 297 295 294 294 292 292 291 291 291 290 290 290 290 290 291 291 291 291 291 290 289 288 287 287 287 286 286 285 285 285 285 285 285 285 285 284
302 302 300 299 298 297 296 295 294 293 292 291 291 291 291 290 290 290 290 290 290 291 291 291 290 290 288 287 287 286 286 286 286 285 285 285 285 285 285 284 284 284
301 300 299 298 297 296 296 295 294 293 292 291 291 291 290 290 290 290 290 290 290 290 290 290 290 289 288 287 286 286 286 286 285 285 285 285 285 285 285 284 284 283
300 300 299 297 296 296 296 295 294 293 291 291 290 290 290 289 289 289 289 290 290 290 290 289 289 288 287 286 286 286 286 285 285 285 285 285 285 284 284 284 284 283
300 299 298 297 296 295 295 294 293 292 291 290 290 290 290 289 289 289 289 289 290 289 289 289 288 287 286 286 286 286 286 285 285 285 285 285 284 284 284 284 283 282
300 299 298 296 295 295 294 293 293 291 290 290 290 290 289 289 288 288 289 289 289 289 289 288 287 286 286 286 286 286 285 285 285 285 285 285 284 284 283 283 282 281
300 299 297 296 296 295 294 293 292 291 290 290 290 290 289 289 288 288 289 289 289 288 288 287 286 286 286 286 285 285 285 285 285 285 285 285 284 283 282 282 281 280
299 298 297 296 296 295 294 293 292 291 290 290 290 290 289 289 288 288 288 288 288 288 287 287 286 286 286 286 285 285 285 285 285 285 285 284 283 282 282 281 280 279
299 298 297 296 295 295 294 293 292 291 290 290 289 290 289 289 288 288 288 288 288 287 287 286 286 286 286 286 285 285 285 285 285 285 284 283 282 281 280 280 279 279
300 299 298 297 295 295 293 292 292 291 290 290 289 289 289 288 288 288 288 288 287 287 286 286 286 286 286 286 286 286 285 285 285 284 283 282 281 280 280 279 279 280
301 299 298 297 296 295 293 292 291 291 290 290 289 289 288 288 288 288 288 287 287 287 286 286 286 286 286 286 286 285 285 285 284 283 282 281 280 280 279 279 280 280
301 300 298 297 296 295 294 292 291 290 290 290 289 289 288 287 287 287 287 287 287 286 286 286 286 286 287 286 286 285 284 283 283 282 281 280 280 279 279 279 280 280
301 299 298 297 296 295 294 292 292 291 290 289 289 288 288 287 287 287 287 287 286 286 286 286 287 287 287 286 285 284 283 282 282 281 280 280 279 279 279 279 279 279
301 299 298 298 296 295 293 292 291 290 289 289 288 287 287 287 287 287 286 286 286 286 286 287 287 287 286 286 285 283 282 281 281 280 280 280 279 279 279 278 278 278
Wind_Speed
38 39 40 39 37 36 38 40 42 43 44 43 42 40 39 37 36 36 35 33 31 28 26 24 22 21 21 21 21 22 22 22 22 23 23 22 21 18 17 15 14 15
37 38 40 41 39 37 37 38 41 43 43 43 42 40 38 36 36 36 35 34 31 28 26 24 22 21 21 21 22 22 23 23 23 23 23 22 20 18 16 15 15 16
38 38 39 41 40 38 37 38 40 42 43 43 42 40 38 37 36 36 35 34 31 29 26 24 23 22 22 22 22 23 23 23 23 23 23 21 19 18 16 16 16 16
40 38 38 39 41 41 40 41 40 41 43 44 43 41 39 38 38 37 36 34 31 29 26 25 23 22 22 22 23 23 23 23 23 23 22 20 18 17 16 16 16 17
42 40 40 41 43 44 44 44 42 41 42 44 44 43 41 40 39 38 36 34 32 29 27 25 24 23 23 23 23 24 24 23 23 22 21 19 18 17 17 16 17 18
44 44 43 43 45 46 46 46 45 43 43 44 44 44 43 41 40 38 36 34 32 30 28 26 25 24 23 24 24 24 24 23 23 22 21 19 17 17 17 17 18 19
47 47 46 47 47 47 47 47 47 46 44 44 45 44 44 42 40 38 36 34 32 30 28 27 25 24 24 25 24 24 24 23 23 21 20 19 17 17 17 18 19 20
49 49 49 50 50 49 49 49 48 48 47 46 45 45 44 42 41 39 37 35 33 31 29 27 26 25 25 25 25 25 24 23 22 21 20 19 18 17 17 18 20 21
52 52 51 52 52 52 51 51 51 50 49 47 45 45 44 42 41 39 37 36 34 32 30 28 27 26 26 26 26 25 25 23 22 21 20 19 18 18 18 19 21 23
55 54 54 54 54 53 53 53 52 52 51 49 46 45 44 43 41 39 38 36 34 33 31 29 28 28 27 27 26 25 24 23 22 21 20 20 19 18 19 20 22 24
56 56 56 56 55 54 54 53 53 52 51 49 48 46 44 43 42 41 39 38 36 34 32 31 29 29 28 28 26 25 24 22 21 20 20 19 19 19 19 21 23 24
58 58 58 57 55 55 54 54 53 53 51 50 48 46 45 44 43 42 40 38 37 35 33 31 30 29 29 27 26 25 23 22 21 20 20 19 19 19 20 22 24 25
59 58 57 56 55 55 54 54 53 52 51 50 48 46 44 44 43 42 40 39 37 35 34 32 31 30 29 27 26 25 23 22 21 20 19 19 19 20 21 23 25 26
58 57 56 55 55 55 54 53 52 52 51 49 47 45 44 43 43 42 41 39 38 36 34 32 31 30 28 26 25 24 23 22 20 19 20 20 20 21 22 24 26 27
54 54 54 55 55 54 53 52 52 51 50 48 46 44 43 43 43 42 41 40 39 37 35 33 31 29 27 26 25 23 22 21 20 20 20 21 21 22 23 25 26 28
51 52 53 54 54 53 52 52 51 50 49 47 45 43 43 44 44 43 42 41 39 37 34 32 30 28 27 25 23 22 22 20 20 20 21 21 22 22 24 26 27 28
48 50 52 52 53 52 51 51 50 50 48 46 44 44 44 45 45 44 43 41 39 36 33 31 29 27 25 23 22 22 21 19 20 21 21 22 23 23 25 26 28 29
46 48 50 50 51 51 51 50 49 49 48 46 45 45 46 46 45 44 43 41 38 35 33 30 28 25 23 22 21 20 20 20 20 21 22 23 24 24 25 27 29 29
45 46 47 48 49 49 49 49 49 49 48 46 45 45 46 47 46 45 43 40 38 34 31 28 26 24 22 20 20 19 19 20 21 21 23 24 24 24 25 27 29 29
43 44 45 46 47 48 49 49 49 49 47 46 45 46 47 48 47 45 43 40 37 33 30 27 25 23 22 20 19 19 19 20 21 22 24 25 24 24 25 27 28 28
42 43 44 45 47 48 49 49 49 48 47 46 46 46 48 48 48 46 44 40 36 32 29 27 25 24 22 21 20 19 20 21 22 23 24 24 24 24 25 26 27 26
41 43 44 45 47 48 49 49 49 48 48 46 46 47 49 49 49 47 44 40 35 32 29 27 25 24 22 21 20 20 21 22 23 24 24 23 23 24 24 25 25 24
41 43 45 46 48 49 49 50 49 48 48 47 47 49 51 52 50 46 43 39 34 31 29 27 25 23 21 20 20 21 21 22 23 23 22 22 23 23 24 24 24 22
41 43 44 46 48 48 49 49 49 48 48 47 48 50 52 52 49 45 41 37 34 31 28 26 25 23 21 21 21 21 22 23 22 21 21 22 23 23 23 23 22 19
41 43 44 45 46 47 48 48 48 48 48 47 49 51 52 50 48 44 41 37 34 31 28 26 25 23 22 22 21 22 23 23 22 21 21 22 22 22 22 21 20 19
40 42 44 45 46 47 47 47 47 47 47 48 50 52 52 50 48 44 41 37 34 32 29 27 25 24 22 22 22 22 22 22 21 20 21 21 21 21 20 19 19 19
Wind_Direction
235 237 238 239 240 243 245 247 247 247 247 246 246 246 246 245 244 242 239 238 238 240 242 246 250 255 261 267 271 274 275 277 282 288 290 292 294 297 302 306 310 311
234 236 238 239 239 241 244 246 248 248 247 247 247 246 245 244 242 240 239 238 238 240 241 245 249 255 261 266 270 272 273 276 281 285 288 291 293 297 302 306 309 311
233 234 236 237 238 239 241 243 245 246 246 245 245 244 242 241 240 238 237 237 238 240 242 245 250 254 260 265 269 271 272 275 280 283 287 290 292 296 301 303 306 309
233 234 236 238 239 240 241 241 242 243 243 242 242 241 240 239 237 237 236 237 238 240 242 245 249 253 259 264 267 269 272 276 280 283 286 289 290 294 297 300 304 307
235 236 237 238 239 239 240 241 241 242 242 241 240 238 238 237 236 236 235 236 237 240 242 245 249 253 258 263 266 268 273 277 281 283 285 287 288 291 295 298 302 305
235 237 238 239 239 239 240 241 241 241 242 241 239 238 237 237 236 235 235 236 238 240 242 244 248 252 257 262 265 268 273 276 279 280 282 284 285 289 294 297 300 304
235 237 238 239 239 239 240 240 241 241 241 241 239 238 237 236 235 235 235 236 237 239 241 244 247 251 257 261 264 267 271 274 276 278 280 282 284 287 292 295 299 303
236 237 238 240 240 239 239 239 239 239 239 239 237 236 236 235 234 234 234 234 235 237 240 242 246 250 255 259 262 265 269 272 274 276 278 280 282 286 290 294 299 303
237 237 238 240 240 240 240 239 239 238 237 237 236 235 234 233 233 233 233 234 234 236 238 240 244 249 253 257 259 262 266 269 272 274 276 278 281 286 290 296 300 303
238 238 239 239 240 240 240 239 238 237 235 235 234 233 232 231 231 231 231 232 233 235 237 239 242 247 251 254 257 260 264 267 269 271 273 276 281 287 293 298 300 301
239 239 239 240 240 240 240 239 238 237 235 234 233 232 230 229 229 229 230 231 232 234 235 237 241 246 250 253 256 259 262 265 266 268 271 276 282 289 294 297 298 299
239 239 239 239 239 240 240 239 238 236 235 234 233 231 229 228 228 229 229 230 231 232 234 236 241 246 250 253 255 259 262 263 264 266 271 277 283 290 294 296 297 297
240 240 240 240 239 239 239 238 238 237 235 234 233 231 229 228 228 227 228 229 229 230 232 236 240 245 248 251 254 258 260 261 264 267 273 280 285 291 294 296 296 296
241 241 240 240 239 238 238 238 238 237 236 234 232 231 230 228 228 227 227 227 228 229 231 235 239 243 247 250 252 256 259 261 266 270 275 281 285 290 294 295 295 295
242 240 239 239 237 237 237 238 238 237 235 233 231 230 229 227 226 226 226 227 227 228 230 234 239 242 245 248 251 256 259 261 266 271 276 282 285 290 294 294 295 296
241 239 239 238 236 236 237 236 236 235 234 232 230 228 227 226 224 224 224 226 226 228 231 234 238 241 243 247 251 255 258 261 268 273 277 282 287 291 293 294 296 298
240 239 238 237 236 235 235 235 235 234 233 230 228 227 225 224 223 223 223 224 226 228 232 235 237 239 242 246 250 254 259 264 269 274 279 284 289 293 295 298 300 302
240 238 237 237 236 235 234 234 234 233 231 229 227 225 224 223 222 223 223 224 226 228 232 234 237 239 242 246 251 256 262 267 271 278 284 289 292 296 299 300 301 304
240 238 238 237 236 235 234 234 233 232 230 228 226 225 224 223 222 222 223 224 226 229 232 233 235 238 242 246 251 257 263 269 276 284 288 291 294 296 298 299 301 303
240 239 238 237 236 235 234 233 232 231 230 228 226 224 223 222 221 221 221 223 225 228 230 231 233 237 241 245 249 255 262 269 277 284 286 288 290 292 296 298 299 300
240 238 237 236 235 234 233 232 231 230 228 226 224 223 222 222 221 220 220 221 224 226 226 228 232 236 240 244 248 255 261 268 275 280 281 283 287 291 294 295 295 296
240 238 236 235 234 232 232 231 230 229 227 225 223 221 221 220 219 219 219 220 222 223 224 226 230 235 239 244 250 255 260 266 270 273 276 280 285 289 289 291 292 294
240 238 236 234 232 232 231 230 228 227 226 224 221 219 218 217 216 216 217 219 220 220 221 224 229 234 239 246 251 255 259 264 266 269 274 280 283 285 287 287 289 296
238 237 235 234 233 232 231 229 227 226 224 222 221 219 217 215 214 215 216 217 217 217 218 223 228 234 239 245 250 254 257 261 264 267 273 278 281 283 284 285 290 302
237 236 235 235 234 233 231 229 227 225 223 221 220 218 216 214 213 214 214 214 213 213 214 220 227 233 238 243 249 252 255 258 262 267 272 276 278 279 282 289 297 305
238 237 237 236 235 234 231 229 227 225 222 220 218 216 214 212 212 212 213 212 211 210 213 219 225 231 235 241 245 248 252 257 260 265 270 272 274 278 285 293 298 302